NOAA 16 DEB

Satellite information

Favourite Embed

Satellite Type and Status

DEBRISIN ORBIT

Key statistics

Satellite NOAA 16 DEB at a glance.

Uptime

9214

Days in orbit

Revolutions

≈ 14.3

Per day

Orbit

SSO

Sun Synchronous Orbit

Inclination

98.7

Latest

Satellite identification and parameters

Extended collection of information and parameters for NOAA 16 DEB.

Object identification

Identified? True

Debris? True

Object name: NOAA 16 DEB

International designator: 2000-055KD

Object number (NORAD): 41400

Object ID (CCSDS): 41400

Country: UNITED STATES OF AMERICA (US)

Current information (Y/N): Y

RCS size: SMALL

Orbital parameters

Period: 100.41 minutes

Inclination: 98.719 deg

SMA: 7156.127 km

Apoapsis: 789.602 km

Periapsis: 766.382 km

RAAN: 77.9053 deg

Eccentricy: 0.00162236

Argument of periapsis: 90.3135 deg

Mean anomaly: 269.9908 deg

Mean motion: 14.34120694 rev/day

Mean motion (dot): 0.00008581 rev/day2

B* drag term: 0.0030744109 1/REarth

Two-line elements (TLE)

Creation date: Dec. 12, 2025, 10:14 a.m.

Reference frame: TEME

Reference center: EARTH

Epoch: Dec. 12, 2025, 4:47 a.m. UTC

TLE line 0: 0 NOAA 16 DEB

TLE line 1: 1 41400U 00055KD 25346.19931097 .00008581 00000-0 30744-2 0 9990

TLE line 2: 2 41400 98.7190 77.9053 0016224 90.3135 269.9908 14.34120694505706

Live tracking on map

Real-time ground track for satellite NOAA 16 DEB.

In-orbit conjunctions

A list of the most updated potential collisions computed for object NOAA 16 DEB.

Target Orbit TCA Probability of collision Miss distance Type
THOR BURNER 2 R/B SSO 2025-06-20 08:39:06 0.0003182222 255.0 (m) ROCKET BODY
THOR ABLESTAR DEB LEO 2024-11-11 15:26:27 0.0005971652 819.0 (m) DEBRIS
PEGASUS DEB LEO 2024-11-01 14:23:45 0.0001218089 95.0 (m) DEBRIS

Associated space launch

The NOAA K, L and M POES satellites begin the fifth generation of improved environmental monitoring in support of NOAA missions. The instrument payload has significant improvements and additions/deletions. The instrument changes have effected the spacecraft subsystems and data formats.

NOAA 16 DEB was lifted into orbit during the mission ‘Titan II SLV | NOAA 16’, on board a Titan II SLV space rocket.

The launch took place on Sept. 21, 2000, 10:22 a.m. from Space Launch Complex 4W.

For more information about the launch, click the button.

Launch to space Titan II SLV | NOAA 16
Titan II SLV | NOAA 16

Agency: N/A

Status: Launch Successful

Launch date: Sept. 21, 2000, 10:22 a.m. UTC

Rocket: Titan II SLV

Launch pad: Space Launch Complex 4W

Location: Vandenberg SFB, CA, USA

...

Latest news about this satellite

There are no fresh news available about this satellite. Check back as we update our databases every day.


Newsletter sign-up

Weekly statistics, charts and insights to help you stay on top of the space industry.